Track STARLINK-4379 now! 10-day predictions STARLINK-4379 is classified as:
1 53217U 22084AE 22224.83335648 -.00048404 00000-0 -83018-3 0 9991 2 53217 97.6539 284.0946 0001697 113.7407 26.7608 15.51272677 3845